Weather History for Dyersburg, TN

Change the Weather History Date:

Tuesday, March 26, 2013

  Actual Average Record
Temperature  
Mean Temperature 37 °F -  
Max Temperature 44 °F 60 °F 84 °F (2007)
Min Temperature 30 °F 43 °F 26 °F (2001)
Degree Days  
Heating Degree Days 28    
Moisture  
Dew Point 20 °F    
Average Humidity 54    
Maximum Humidity 69    
Minimum Humidity 39    
Precipitation  
Precipitation 0.00 in - - ()
Sea Level Pressure  
Sea Level Pressure 30.32 in    
Wind  
Wind Speed 7 mph (WNW)    
Max Wind Speed 13 mph    
Max Gust Speed 17 mph    
Visibility 10 miles    
Events      
Averages and records for this station are not official NWS values.
T = Trace of Precipitation, MM = Missing Value Source: NWS Daily Summary

Daily Weather History Graph

Daily Weather History Graph

Search for Another Location

Airport:

Trip Planner

Search our weather history database for the weather conditions in past years. The results will help you decide how hot, cold, wet, or windy it might be!

Date:

Astronomy

Mar. 26, 2013 Rise Set
Actual Time 6:52 AM CDT 7:14 PM CDT
Civil Twilight 6:26 AM CDT 7:40 PM CDT
Nautical Twilight 5:56 AM CDT 8:10 PM CDT
Astronomical Twilight 5:25 AM CDT 8:41 PM CDT
Moon 6:51 PM CDT (3/26) 6:08 AM CDT (3/26)
Length of Visible Light 13h 13m
Length of Day
12h 22m
Waxing Gibbous, 99% of the Moon is Illuminated
Mar 26
Waxing Gibbous
Mar 27
Full
Apr 2
Last Quarter
Apr 10
New
Apr 18
First Quarter

Hourly Weather History & Observations

Time (CDT) Temp. Windchill Dew Point Humidity Pressure Visibility Wind Dir Wind Speed Gust Speed Precip Events Conditions
12:15 AM 33.8 °F 27.7 °F 19.4 °F 56% 30.24 in 10.0 mi WNW 6.9 mph - N/A   Mostly Cloudy
12:35 AM 33.8 °F 27.0 °F 19.4 °F 56% 30.24 in 10.0 mi WNW 8.1 mph - N/A   Scattered Clouds
12:55 AM 33.8 °F 27.0 °F 19.4 °F 56% 30.24 in 10.0 mi WNW 8.1 mph - N/A   Mostly Cloudy
1:15 AM 33.8 °F 28.6 °F 19.4 °F 56% 30.24 in 10.0 mi WNW 5.8 mph - N/A   Mostly Cloudy
1:35 AM 33.8 °F 27.7 °F 19.4 °F 56% 30.25 in 10.0 mi WNW 6.9 mph - N/A   Overcast
1:55 AM 33.8 °F 26.4 °F 19.4 °F 56% 30.25 in 9.0 mi WNW 9.2 mph - N/A   Overcast
2:15 AM 33.8 °F 26.4 °F 19.4 °F 56% 30.24 in 6.0 mi WNW 9.2 mph - N/A   Overcast
2:35 AM 32.0 °F 24.2 °F 21.2 °F 64% 30.25 in 4.0 mi WNW 9.2 mph 17.3 mph N/A   Overcast
2:55 AM 32.0 °F 24.8 °F 21.2 °F 64% 30.25 in 7.0 mi NW 8.1 mph - N/A   Overcast
3:15 AM 30.2 °F 24.3 °F 21.2 °F 69% 30.24 in 9.0 mi NW 5.8 mph - N/A   Overcast
3:35 AM 30.2 °F 24.3 °F 21.2 °F 69% 30.24 in 9.0 mi NW 5.8 mph - N/A   Overcast
3:55 AM 30.2 °F 22.6 °F 21.2 °F 69% 30.24 in 10.0 mi WNW 8.1 mph - N/A   Overcast
4:15 AM 30.2 °F 24.3 °F 21.2 °F 69% 30.25 in 10.0 mi WNW 5.8 mph - N/A   Overcast
4:35 AM 30.2 °F 24.3 °F 21.2 °F 69% 30.25 in 10.0 mi WNW 5.8 mph - N/A   Overcast
4:55 AM 30.2 °F 24.3 °F 21.2 °F 69% 30.25 in 10.0 mi WNW 5.8 mph - N/A   Mostly Cloudy
5:15 AM 30.2 °F 24.3 °F 21.2 °F 69% 30.26 in 10.0 mi WNW 5.8 mph - N/A   Partly Cloudy
5:35 AM 30.2 °F 24.3 °F 19.4 °F 64% 30.26 in 10.0 mi West 5.8 mph - N/A   Scattered Clouds
5:55 AM 30.2 °F 25.4 °F 19.4 °F 64% 30.26 in 10.0 mi West 4.6 mph - N/A   Mostly Cloudy
6:15 AM 30.2 °F 26.7 °F 19.4 °F 64% 30.27 in 10.0 mi NW 3.5 mph - N/A   Overcast
6:35 AM 30.2 °F 24.3 °F 19.4 °F 64% 30.27 in 10.0 mi WNW 5.8 mph - N/A   Mostly Cloudy
6:55 AM 30.2 °F 24.3 °F 19.4 °F 64% 30.28 in 10.0 mi West 5.8 mph - N/A   Partly Cloudy
7:15 AM 30.2 °F 22.6 °F 19.4 °F 64% 30.29 in 10.0 mi West 8.1 mph - N/A   Clear
7:35 AM 30.2 °F 23.4 °F 19.4 °F 64% 30.30 in 10.0 mi West 6.9 mph - N/A   Clear
7:55 AM 30.2 °F 23.4 °F 21.2 °F 69% 30.30 in 10.0 mi WNW 6.9 mph - N/A   Clear
8:15 AM 32.0 °F 24.2 °F 21.2 °F 64% 30.32 in 10.0 mi WNW 9.2 mph - N/A   Clear
8:35 AM 33.8 °F 27.0 °F 21.2 °F 60% 30.32 in 10.0 mi WNW 8.1 mph - N/A   Clear
8:55 AM 33.8 °F 25.8 °F 23.0 °F 65% 30.33 in 10.0 mi WNW 10.4 mph - N/A   Partly Cloudy
9:15 AM 35.6 °F 28.0 °F 21.2 °F 56% 30.34 in 10.0 mi NW 10.4 mph - N/A   Mostly Cloudy
9:35 AM 35.6 °F 27.5 °F 23.0 °F 60% 30.34 in 10.0 mi North 11.5 mph - N/A   Mostly Cloudy
9:55 AM 37.4 °F 29.8 °F 21.2 °F 52% 30.35 in 10.0 mi NNW 11.5 mph - N/A   Mostly Cloudy
10:15 AM 37.4 °F 30.8 °F 21.2 °F 52% 30.35 in 10.0 mi NNW 9.2 mph - N/A   Mostly Cloudy
10:35 AM 37.4 °F 30.8 °F 21.2 °F 52% 30.35 in 10.0 mi NNW 9.2 mph - N/A   Mostly Cloudy
10:55 AM 37.4 °F 32.1 °F 21.2 °F 52% 30.36 in 10.0 mi NW 6.9 mph - N/A   Mostly Cloudy
11:15 AM 39.2 °F 33.6 °F 21.2 °F 49% 30.36 in 10.0 mi NNW 8.1 mph - N/A   Mostly Cloudy
11:35 AM 39.2 °F 33.0 °F 23.0 °F 52% 30.36 in 10.0 mi WNW 9.2 mph - N/A   Overcast
11:55 AM 39.2 °F 33.6 °F 23.0 °F 52% 30.36 in 10.0 mi North 8.1 mph - N/A   Overcast
12:15 PM 39.2 °F 32.0 °F 21.2 °F 49% 30.36 in 10.0 mi North 11.5 mph - N/A   Overcast
12:35 PM 41.0 °F 36.4 °F 21.2 °F 45% 30.36 in 10.0 mi North 6.9 mph - N/A   Overcast
12:55 PM 39.2 °F 33.6 °F 23.0 °F 52% 30.36 in 10.0 mi NNW 8.1 mph - N/A   Overcast
1:15 PM 39.2 °F 35.9 °F 21.2 °F 49% 30.37 in 10.0 mi NW 4.6 mph - N/A   Overcast
1:35 PM 39.2 °F 33.6 °F 21.2 °F 49% 30.37 in 10.0 mi NW 8.1 mph - N/A   Overcast
1:55 PM 39.2 °F 35.0 °F 21.2 °F 49% 30.37 in 10.0 mi WNW 5.8 mph - N/A   Overcast
2:15 PM 39.2 °F 34.2 °F 21.2 °F 49% 30.36 in 10.0 mi NNW 6.9 mph - N/A   Overcast
2:35 PM 41.0 °F 37.1 °F 21.2 °F 45% 30.36 in 10.0 mi WNW 5.8 mph - N/A   Overcast
2:55 PM 41.0 °F 35.8 °F 21.2 °F 45% 30.35 in 10.0 mi WNW 8.1 mph - N/A   Overcast
3:15 PM 41.0 °F 35.8 °F 21.2 °F 45% 30.35 in 10.0 mi NW 8.1 mph - N/A   Overcast
3:35 PM 42.8 °F 38.6 °F 21.2 °F 42% 30.35 in 10.0 mi NNW 6.9 mph - N/A   Overcast
3:55 PM 42.8 °F 40.1 °F 21.2 °F 42% 30.34 in 10.0 mi NW 4.6 mph - N/A   Overcast
4:15 PM 44.6 °F 39.2 °F 21.2 °F 39% 30.34 in 10.0 mi WNW 10.4 mph - N/A   Overcast
4:35 PM 44.6 °F 38.4 °F 21.2 °F 39% 30.34 in 10.0 mi West 12.7 mph 16.1 mph N/A   Mostly Cloudy
4:55 PM 44.6 °F 39.2 °F 21.2 °F 39% 30.33 in 10.0 mi WNW 10.4 mph - N/A   Overcast
5:15 PM 44.6 °F 39.2 °F 21.2 °F 39% 30.34 in 10.0 mi WNW 10.4 mph - N/A   Scattered Clouds
5:35 PM 44.6 °F 40.2 °F 21.2 °F 39% 30.34 in 10.0 mi WNW 8.1 mph - N/A   Partly Cloudy
5:55 PM 42.8 °F 40.1 °F 19.4 °F 39% 30.34 in 10.0 mi WNW 4.6 mph - N/A   Clear
6:15 PM 42.8 °F - 21.2 °F 42% 30.35 in 10.0 mi Calm Calm - N/A   Scattered Clouds
6:35 PM 42.8 °F - 19.4 °F 39% 30.34 in 10.0 mi Calm Calm - N/A   Scattered Clouds
6:55 PM 42.8 °F - 19.4 °F 39% 30.35 in 10.0 mi Calm Calm - N/A   Partly Cloudy
7:15 PM 41.0 °F - 19.4 °F 42% 30.35 in 10.0 mi Calm Calm - N/A   Clear
7:35 PM 39.2 °F - 19.4 °F 45% 30.35 in 10.0 mi Calm Calm - N/A   Clear
7:55 PM 37.4 °F - 19.4 °F 48% 30.35 in 10.0 mi Calm Calm - N/A   Clear
8:15 PM 35.6 °F 32.8 °F 19.4 °F 52% 30.35 in 10.0 mi South 3.5 mph - N/A   Clear
8:35 PM 35.6 °F 32.8 °F 19.4 °F 52% 30.35 in 10.0 mi South 3.5 mph - N/A   Clear
8:55 PM 35.6 °F 31.7 °F 19.4 °F 52% 30.35 in 10.0 mi South 4.6 mph - N/A   Clear
9:15 PM 35.6 °F 32.8 °F 19.4 °F 52% 30.36 in 10.0 mi South 3.5 mph - N/A   Clear
9:35 PM 35.6 °F 32.8 °F 19.4 °F 52% 30.36 in 10.0 mi SSE 3.5 mph - N/A   Clear
9:55 PM 35.6 °F 32.8 °F 19.4 °F 52% 30.36 in 10.0 mi SSE 3.5 mph - N/A   Clear
10:15 PM 35.6 °F 32.8 °F 19.4 °F 52% 30.37 in 10.0 mi South 3.5 mph - N/A   Clear
10:35 PM 33.8 °F 30.8 °F 19.4 °F 56% 30.36 in 10.0 mi SSE 3.5 mph - N/A   Clear
10:55 PM 33.8 °F - 17.6 °F 52% 30.36 in 10.0 mi Calm Calm - N/A   Clear
11:15 PM 32.0 °F - 17.6 °F 55% 30.36 in 10.0 mi Calm Calm - N/A   Clear
11:35 PM 32.0 °F - 17.6 °F 55% 30.36 in 10.0 mi Calm Calm - N/A   Clear
11:55 PM 32.0 °F - 17.6 °F 55% 30.37 in 10.0 mi Calm Calm - N/A   Clear